RYR39AQ EBCI-LERS

Flight info

Callsign RYR39AQ
Flight time 1h 34m
Altitude 31000
Route CIV N872 LESDO DCT KOVIN DCT DUCRA/N0451F370 DCT RESMI DCT DEKOD DCT DISAK DCT DIRMO DCT VALKU DCT ATSUP DCT MINSO DCT DEGOL DCT PPG DCT ALBER DCT GIR
Aircraft B38M/M-SDE1FGHILORVWXY/HB1

Departure

Time 2026-04-24 13:56
Airport Brussels South Charleroi Airport (EBCI)

Arrival

Time 2026-04-24 15:31
Airport Reus Airport (LERS)
Time Latitude Longitude Altitude Speed Heading
2026-04-24 13:26 50.46819 4.46932 620 ft 0 kts 335°
2026-04-24 13:44 50.46810 4.46938 630 ft 4 kts 336°
2026-04-24 13:44 50.46788 4.46958 626 ft 4 kts 311°
2026-04-24 13:45 50.46781 4.46992 630 ft 4 kts 257°
2026-04-24 13:45 50.46784 4.47010 630 ft 1 kts 245°
2026-04-24 13:50 50.46783 4.47006 630 ft 2 kts 244°
2026-04-24 13:50 50.46774 4.46976 630 ft 4 kts 245°
2026-04-24 13:51 50.46757 4.46918 623 ft 7 kts 246°
2026-04-24 13:51 50.46733 4.46832 622 ft 10 kts 245°
2026-04-24 13:51 50.46678 4.46775 615 ft 11 kts 165°
2026-04-24 13:51 50.46614 4.46783 615 ft 10 kts 217°
2026-04-24 13:52 50.46576 4.46694 620 ft 11 kts 244°
2026-04-24 13:52 50.46541 4.46576 616 ft 13 kts 245°
2026-04-24 13:52 50.46500 4.46431 625 ft 16 kts 245°
2026-04-24 13:52 50.46471 4.46332 622 ft 17 kts 245°
2026-04-24 13:53 50.46435 4.46209 624 ft 19 kts 245°
2026-04-24 13:53 50.46379 4.46017 623 ft 21 kts 245°
2026-04-24 13:53 50.46361 4.45955 622 ft 22 kts 245°
2026-04-24 13:53 50.46302 4.45750 623 ft 24 kts 245°
2026-04-24 13:54 50.46231 4.45508 618 ft 26 kts 245°
2026-04-24 13:54 50.46154 4.45242 618 ft 28 kts 245°
2026-04-24 13:54 50.46071 4.44956 622 ft 30 kts 245°
2026-04-24 13:54 50.45983 4.44650 620 ft 32 kts 246°
2026-04-24 13:55 50.45870 4.44345 628 ft 33 kts 231°
2026-04-24 13:55 50.45725 4.44053 624 ft 35 kts 232°
2026-04-24 13:55 50.45630 4.44045 617 ft 14 kts 87°
2026-04-24 13:55 50.45675 4.44213 616 ft 23 kts 65°
2026-04-24 13:56 50.45783 4.44586 627 ft 67 kts 65°
2026-04-24 13:56 50.46079 4.45607 615 ft 135 kts 65°
2026-04-24 13:56 50.46522 4.47165 862 ft 168 kts 64°
2026-04-24 13:56 50.47037 4.48918 1429 ft 189 kts 63°
2026-04-24 13:57 50.47715 4.50770 2165 ft 196 kts 47°
2026-04-24 13:57 50.48689 4.52340 2868 ft 210 kts 45°
2026-04-24 13:57 50.49762 4.54049 3376 ft 226 kts 46°
2026-04-24 13:57 50.50855 4.55816 4176 ft 226 kts 45°
2026-04-24 13:58 50.51957 4.57613 4785 ft 231 kts 46°
2026-04-24 13:58 50.53153 4.59339 5341 ft 237 kts 35°
2026-04-24 13:58 50.54653 4.60389 6111 ft 239 kts 13°
2026-04-24 13:58 50.56319 4.60215 6827 ft 245 kts 344°
2026-04-24 13:59 50.57795 4.58804 7448 ft 255 kts 315°
2026-04-24 13:59 50.58692 4.56384 8196 ft 263 kts 289°
2026-04-24 13:59 50.58836 4.53527 9037 ft 265 kts 263°
2026-04-24 13:59 50.58152 4.50827 9802 ft 273 kts 234°
2026-04-24 14:00 50.56697 4.48871 10549 ft 278 kts 212°
2026-04-24 14:00 50.55057 4.47246 11400 ft 277 kts 213°
2026-04-24 14:00 50.53403 4.45562 11993 ft 292 kts 214°
2026-04-24 14:00 50.51578 4.43941 12359 ft 312 kts 200°
2026-04-24 14:01 50.49394 4.43223 12682 ft 331 kts 189°
2026-04-24 14:01 50.47077 4.42473 12965 ft 349 kts 193°
2026-04-24 14:01 50.44688 4.41650 13392 ft 359 kts 192°
2026-04-24 14:01 50.42247 4.40813 14132 ft 360 kts 193°
2026-04-24 14:02 50.39791 4.39973 14718 ft 363 kts 193°
2026-04-24 14:02 50.37323 4.39131 15344 ft 365 kts 193°
2026-04-24 14:02 50.34842 4.38285 16074 ft 365 kts 193°
2026-04-24 14:02 50.32346 4.37436 16719 ft 369 kts 193°
2026-04-24 14:03 50.29828 4.36578 17328 ft 372 kts 193°
2026-04-24 14:03 50.27287 4.35716 17894 ft 375 kts 193°
2026-04-24 14:03 50.24742 4.34851 18550 ft 375 kts 193°
2026-04-24 14:03 50.22185 4.33984 19056 ft 376 kts 193°
2026-04-24 14:04 50.19613 4.33114 19454 ft 380 kts 193°
2026-04-24 14:04 50.17021 4.32236 19891 ft 382 kts 193°
2026-04-24 14:04 50.14417 4.31356 20315 ft 384 kts 193°
2026-04-24 14:04 50.11799 4.30473 20741 ft 386 kts 193°
2026-04-24 14:05 50.09175 4.29589 21200 ft 386 kts 193°
2026-04-24 14:05 50.06536 4.28700 21568 ft 389 kts 193°
2026-04-24 14:05 50.03882 4.27806 21938 ft 391 kts 193°
2026-04-24 14:05 50.01220 4.26912 22340 ft 392 kts 193°
2026-04-24 14:06 49.98541 4.26013 22697 ft 394 kts 193°
2026-04-24 14:06 49.95855 4.25112 23036 ft 396 kts 193°
2026-04-24 14:06 49.93152 4.24207 23368 ft 398 kts 193°
2026-04-24 14:06 49.90444 4.23302 23713 ft 399 kts 193°
2026-04-24 14:07 49.87716 4.22391 23979 ft 401 kts 193°
2026-04-24 14:07 49.84988 4.21480 24244 ft 402 kts 193°
2026-04-24 14:07 49.82248 4.20567 24495 ft 403 kts 193°
2026-04-24 14:07 49.79529 4.19662 24723 ft 405 kts 193°
2026-04-24 14:08 49.76775 4.18746 24965 ft 406 kts 193°
2026-04-24 14:08 49.74005 4.17826 25197 ft 407 kts 193°
2026-04-24 14:08 49.71227 4.16904 25417 ft 408 kts 193°
2026-04-24 14:08 49.68434 4.15979 25626 ft 410 kts 193°
2026-04-24 14:09 49.65674 4.15066 25830 ft 411 kts 193°
2026-04-24 14:09 49.62873 4.14140 26013 ft 413 kts 193°
2026-04-24 14:09 49.60062 4.13212 26259 ft 414 kts 193°
2026-04-24 14:09 49.57243 4.12282 26502 ft 415 kts 193°
2026-04-24 14:10 49.55333 4.11652 26637 ft 416 kts 193°
2026-04-24 14:10 49.51575 4.10416 26924 ft 418 kts 193°
2026-04-24 14:10 49.48727 4.09480 27118 ft 419 kts 193°
2026-04-24 14:10 49.45873 4.08543 27318 ft 420 kts 193°
2026-04-24 14:11 49.43006 4.07604 27496 ft 422 kts 192°
2026-04-24 14:11 49.40132 4.06663 27670 ft 423 kts 192°
2026-04-24 14:11 49.35335 4.05095 27952 ft 425 kts 192°
2026-04-24 14:12 49.32440 4.04149 28115 ft 426 kts 192°
2026-04-24 14:12 49.28594 4.02896 28317 ft 427 kts 192°
2026-04-24 14:12 49.25680 4.01947 28457 ft 428 kts 192°
2026-04-24 14:13 49.20823 4.00369 28693 ft 430 kts 192°
2026-04-24 14:13 49.17880 3.99414 28803 ft 431 kts 192°
2026-04-24 14:13 49.14947 3.98464 28945 ft 431 kts 192°
2026-04-24 14:13 49.12001 3.97510 29058 ft 432 kts 192°
2026-04-24 14:14 49.09059 3.96559 29161 ft 433 kts 192°
2026-04-24 14:14 49.06110 3.95607 29276 ft 433 kts 192°
2026-04-24 14:14 49.00236 3.93714 29476 ft 435 kts 191°
2026-04-24 14:15 48.97275 3.92761 29585 ft 435 kts 191°
2026-04-24 14:15 48.94307 3.91808 29650 ft 436 kts 191°
2026-04-24 14:15 48.91331 3.90853 29752 ft 436 kts 191°
2026-04-24 14:15 48.88361 3.89901 29834 ft 437 kts 191°
2026-04-24 14:16 48.82399 3.87993 29992 ft 438 kts 191°
2026-04-24 14:17 48.73468 3.85145 30205 ft 440 kts 191°
2026-04-24 14:17 48.64479 3.82288 30401 ft 441 kts 191°
2026-04-24 14:18 48.58463 3.80382 30548 ft 442 kts 191°
2026-04-24 14:18 48.52440 3.78478 30704 ft 442 kts 191°
2026-04-24 14:19 48.46414 3.76579 30865 ft 442 kts 191°
2026-04-24 14:19 48.43397 3.75629 30984 ft 442 kts 191°
2026-04-24 14:19 48.40381 3.74681 31123 ft 441 kts 191°
2026-04-24 14:20 48.34409 3.72808 31182 ft 439 kts 190°
2026-04-24 14:20 48.28432 3.70936 31171 ft 438 kts 190°
2026-04-24 14:21 48.22464 3.69073 31165 ft 438 kts 190°
2026-04-24 14:21 48.16489 3.67211 31173 ft 439 kts 189°
2026-04-24 14:22 48.10506 3.65352 31165 ft 437 kts 189°
2026-04-24 14:23 48.01603 3.62593 31156 ft 438 kts 189°
2026-04-24 14:23 47.95631 3.60748 31166 ft 437 kts 189°
2026-04-24 14:24 47.89686 3.58916 31156 ft 435 kts 189°
2026-04-24 14:24 47.83744 3.57089 31155 ft 436 kts 189°
2026-04-24 14:25 47.77806 3.55266 31153 ft 436 kts 189°
2026-04-24 14:25 47.71869 3.53450 31163 ft 435 kts 188°
2026-04-24 14:26 47.65980 3.51651 31148 ft 434 kts 188°
2026-04-24 14:26 47.60049 3.49844 31148 ft 435 kts 188°
2026-04-24 14:27 47.54122 3.48043 31144 ft 435 kts 188°
2026-04-24 14:27 47.48195 3.46245 31141 ft 434 kts 188°
2026-04-24 14:28 47.42277 3.44454 31141 ft 434 kts 188°
2026-04-24 14:28 47.36395 3.42678 31136 ft 434 kts 188°
2026-04-24 14:29 47.30471 3.40894 31144 ft 435 kts 189°
2026-04-24 14:29 47.24545 3.39114 31135 ft 435 kts 189°
2026-04-24 14:30 47.19612 3.37635 31136 ft 435 kts 189°
2026-04-24 14:30 47.12672 3.35559 31122 ft 435 kts 190°
2026-04-24 14:31 47.06744 3.33789 31128 ft 434 kts 190°
2026-04-24 14:31 47.00862 3.32037 31130 ft 434 kts 190°
2026-04-24 14:32 46.94939 3.30278 31127 ft 434 kts 190°
2026-04-24 14:32 46.89007 3.28520 31127 ft 435 kts 192°
2026-04-24 14:33 46.83062 3.26761 31127 ft 436 kts 192°
2026-04-24 14:33 46.77120 3.25012 31142 ft 437 kts 192°
2026-04-24 14:34 46.71098 3.23235 31124 ft 447 kts 192°
2026-04-24 14:34 46.64995 3.21442 31121 ft 447 kts 192°
2026-04-24 14:35 46.58936 3.19666 31118 ft 447 kts 192°
2026-04-24 14:35 46.52835 3.17882 31120 ft 447 kts 192°
2026-04-24 14:36 46.46724 3.16100 31117 ft 448 kts 193°
2026-04-24 14:36 46.40607 3.14319 31114 ft 448 kts 193°
2026-04-24 14:37 46.34491 3.12543 31109 ft 448 kts 193°
2026-04-24 14:37 46.28377 3.10771 31101 ft 449 kts 194°
2026-04-24 14:38 46.22237 3.08997 31103 ft 449 kts 194°
2026-04-24 14:38 46.16101 3.07227 31111 ft 450 kts 194°
2026-04-24 14:39 46.09961 3.05459 31079 ft 452 kts 195°
2026-04-24 14:39 46.03816 3.03696 31097 ft 454 kts 195°
2026-04-24 14:40 45.97623 3.01922 31105 ft 454 kts 195°
2026-04-24 14:40 45.91430 3.00152 31085 ft 454 kts 195°
2026-04-24 14:41 45.85207 2.98377 31096 ft 456 kts 195°
2026-04-24 14:41 45.78976 2.96604 31105 ft 457 kts 195°
2026-04-24 14:42 45.73771 2.95257 31087 ft 459 kts 187°
2026-04-24 14:42 45.66246 2.95057 31093 ft 464 kts 184°
2026-04-24 14:43 45.59776 2.94884 31098 ft 464 kts 184°
2026-04-24 14:43 45.53321 2.94712 31086 ft 464 kts 184°
2026-04-24 14:44 45.46885 2.94543 31107 ft 466 kts 184°
2026-04-24 14:44 45.40410 2.94372 31113 ft 465 kts 184°
2026-04-24 14:45 45.33935 2.94202 31089 ft 465 kts 183°
2026-04-24 14:45 45.27444 2.94031 31101 ft 467 kts 183°
2026-04-24 14:46 45.20952 2.93861 31106 ft 467 kts 183°
2026-04-24 14:46 45.14488 2.93692 31090 ft 467 kts 183°
2026-04-24 14:47 45.09031 2.93550 31121 ft 469 kts 183°
2026-04-24 14:47 45.01449 2.93353 31109 ft 469 kts 183°
2026-04-24 14:48 44.94920 2.93183 31112 ft 469 kts 183°
2026-04-24 14:48 44.88371 2.93014 31117 ft 471 kts 183°
2026-04-24 14:49 44.81837 2.92642 31110 ft 470 kts 185°
2026-04-24 14:49 44.75298 2.92153 31115 ft 470 kts 185°
2026-04-24 14:50 44.68806 2.91682 31114 ft 470 kts 185°
2026-04-24 14:50 44.62270 2.91210 31120 ft 470 kts 185°
2026-04-24 14:51 44.55736 2.90738 31114 ft 471 kts 185°
2026-04-24 14:51 44.49165 2.90265 31120 ft 473 kts 184°
2026-04-24 14:52 44.42603 2.89796 31122 ft 472 kts 184°
2026-04-24 14:52 44.36032 2.89326 31123 ft 474 kts 184°
2026-04-24 14:53 44.29442 2.88855 31116 ft 475 kts 185°
2026-04-24 14:53 44.22830 2.88384 31120 ft 475 kts 184°
2026-04-24 14:54 44.16281 2.87918 31115 ft 475 kts 184°
2026-04-24 14:54 44.09656 2.87448 31122 ft 476 kts 184°
2026-04-24 14:55 44.04118 2.87056 31118 ft 476 kts 184°
2026-04-24 14:55 43.96404 2.86511 31116 ft 477 kts 184°
2026-04-24 14:56 43.89769 2.86043 31118 ft 478 kts 184°
2026-04-24 14:56 43.83113 2.85575 31126 ft 477 kts 184°
2026-04-24 14:57 43.76472 2.85322 31128 ft 480 kts 179°
2026-04-24 14:57 43.69773 2.85471 31129 ft 480 kts 180°
2026-04-24 14:58 43.63099 2.85563 31130 ft 481 kts 181°
2026-04-24 14:58 43.56447 2.85651 31135 ft 478 kts 180°
2026-04-24 14:59 43.49792 2.85739 31141 ft 478 kts 180°
2026-04-24 14:59 43.43138 2.85826 31136 ft 478 kts 180°
2026-04-24 15:00 43.36485 2.85914 31142 ft 478 kts 180°
2026-04-24 15:00 43.29822 2.86001 31140 ft 479 kts 180°
2026-04-24 15:01 43.23165 2.86088 31138 ft 478 kts 180°
2026-04-24 15:01 43.16539 2.86175 31135 ft 480 kts 180°
2026-04-24 15:02 43.09854 2.86261 31129 ft 480 kts 180°
2026-04-24 15:02 43.04303 2.86333 31126 ft 481 kts 180°
2026-04-24 15:03 42.97622 2.86420 31119 ft 478 kts 180°
2026-04-24 15:03 42.90950 2.86506 31123 ft 480 kts 180°
2026-04-24 15:04 42.84280 2.86593 31130 ft 478 kts 180°
2026-04-24 15:04 42.77615 2.86678 31129 ft 480 kts 180°
2026-04-24 15:05 42.70964 2.86105 31139 ft 478 kts 186°
2026-04-24 15:05 42.64364 2.85329 31129 ft 479 kts 186°
2026-04-24 15:06 42.57722 2.84597 31118 ft 478 kts 186°
2026-04-24 15:06 42.51079 2.83871 31125 ft 479 kts 186°
2026-04-24 15:07 42.44439 2.83133 31123 ft 478 kts 186°
2026-04-24 15:07 42.37844 2.82359 31118 ft 479 kts 186°
2026-04-24 15:08 42.31249 2.81591 31118 ft 477 kts 186°
2026-04-24 15:08 42.24651 2.80825 30268 ft 475 kts 186°
2026-04-24 15:08 42.21336 2.80440 29011 ft 482 kts 186°
2026-04-24 15:09 42.18025 2.80060 27989 ft 484 kts 186°
2026-04-24 15:09 42.14685 2.79670 27325 ft 478 kts 186°
2026-04-24 15:09 42.11418 2.79077 26724 ft 469 kts 196°
2026-04-24 15:09 42.08454 2.77398 26226 ft 457 kts 214°
2026-04-24 15:10 42.06034 2.74719 25744 ft 444 kts 228°
2026-04-24 15:10 42.04149 2.71451 25251 ft 446 kts 240°
2026-04-24 15:10 42.02828 2.67723 25107 ft 446 kts 254°
2026-04-24 15:10 42.01892 2.63723 25102 ft 452 kts 253°
2026-04-24 15:11 42.00882 2.59718 25003 ft 447 kts 252°
2026-04-24 15:11 41.99902 2.55825 24717 ft 434 kts 253°
2026-04-24 15:11 41.98948 2.52038 24431 ft 422 kts 253°
2026-04-24 15:11 41.97985 2.48279 23825 ft 432 kts 252°
2026-04-24 15:12 41.96989 2.44501 23059 ft 436 kts 252°
2026-04-24 15:12 41.94980 2.36816 21713 ft 434 kts 252°
2026-04-24 15:12 41.93991 2.33009 21058 ft 429 kts 252°
2026-04-24 15:13 41.93014 2.29244 20418 ft 426 kts 252°
2026-04-24 15:13 41.91966 2.25541 19632 ft 422 kts 244°
2026-04-24 15:13 41.90324 2.22316 18692 ft 416 kts 228°
2026-04-24 15:13 41.88169 2.19761 17704 ft 410 kts 221°
2026-04-24 15:14 41.86040 2.17255 16704 ft 404 kts 223°
2026-04-24 15:14 41.83963 2.14763 15769 ft 398 kts 223°
2026-04-24 15:14 41.81920 2.12292 14861 ft 391 kts 225°
2026-04-24 15:14 41.79916 2.09857 14022 ft 385 kts 224°
2026-04-24 15:15 41.77948 2.07462 13145 ft 378 kts 224°
2026-04-24 15:15 41.76047 2.05152 12527 ft 367 kts 224°
2026-04-24 15:15 41.74158 2.02860 12059 ft 363 kts 224°
2026-04-24 15:15 41.72307 2.00608 11772 ft 355 kts 224°
2026-04-24 15:16 41.70590 1.98532 11625 ft 332 kts 224°
2026-04-24 15:16 41.68920 1.96514 11474 ft 318 kts 224°
2026-04-24 15:16 41.67299 1.94553 11278 ft 310 kts 225°
2026-04-24 15:16 41.65719 1.92641 11128 ft 302 kts 225°
2026-04-24 15:17 41.64184 1.90783 10973 ft 294 kts 225°
2026-04-24 15:17 41.62692 1.88976 10834 ft 285 kts 224°
2026-04-24 15:17 41.61240 1.87222 10685 ft 277 kts 225°
2026-04-24 15:17 41.59827 1.85514 10552 ft 270 kts 226°
2026-04-24 15:18 41.58439 1.83843 10454 ft 269 kts 225°
2026-04-24 15:18 41.57045 1.82152 10327 ft 278 kts 226°
2026-04-24 15:18 41.55603 1.80407 10114 ft 281 kts 225°
2026-04-24 15:18 41.54146 1.78647 9793 ft 283 kts 225°
2026-04-24 15:19 41.52689 1.76891 9458 ft 282 kts 225°
2026-04-24 15:19 41.51240 1.75147 9159 ft 280 kts 225°
2026-04-24 15:19 41.49795 1.73404 8817 ft 280 kts 224°
2026-04-24 15:19 41.48350 1.71664 8451 ft 280 kts 223°
2026-04-24 15:20 41.46903 1.69925 8136 ft 279 kts 223°
2026-04-24 15:20 41.45462 1.68193 7835 ft 278 kts 223°
2026-04-24 15:20 41.44029 1.66472 7536 ft 277 kts 223°
2026-04-24 15:20 41.42599 1.64755 7227 ft 275 kts 223°
2026-04-24 15:21 41.41195 1.63071 6946 ft 274 kts 223°
2026-04-24 15:21 41.39780 1.61375 6659 ft 272 kts 222°
2026-04-24 15:21 41.38371 1.59685 6368 ft 271 kts 222°
2026-04-24 15:21 41.36988 1.58029 6202 ft 264 kts 222°
2026-04-24 15:22 41.35646 1.56424 6089 ft 255 kts 222°
2026-04-24 15:22 41.34337 1.54908 6010 ft 245 kts 215°
2026-04-24 15:22 41.32851 1.53868 5820 ft 245 kts 205°
2026-04-24 15:23 41.29795 1.51938 5357 ft 238 kts 206°
2026-04-24 15:23 41.26961 1.50115 4946 ft 217 kts 205°
2026-04-24 15:23 41.25628 1.49250 4714 ft 209 kts 205°
2026-04-24 15:24 41.23060 1.45281 4049 ft 185 kts 245°
2026-04-24 15:25 41.22279 1.42675 3972 ft 183 kts 247°
2026-04-24 15:25 41.21218 1.39003 3459 ft 182 kts 246°
2026-04-24 15:26 41.19845 1.34319 2775 ft 180 kts 246°
2026-04-24 15:27 41.18593 1.29994 2190 ft 146 kts 247°
2026-04-24 15:27 41.17533 1.26316 1547 ft 141 kts 248°
2026-04-24 15:28 41.16176 1.21588 819 ft 135 kts 245°
2026-04-24 15:29 41.15480 1.19263 424 ft 137 kts 247°
2026-04-24 15:30 41.14687 1.16538 245 ft 62 kts 249°
2026-04-24 15:31 41.14646 1.15862 245 ft 6 kts 345°
2026-04-24 15:32 41.14750 1.16143 245 ft 3 kts 50°
2026-04-24 15:33 41.14829 1.16124 245 ft 0 kts 339°